sat.trackr.live / text

‹ back to catalog

STARLINK-35342

NORAD 66181 · 2025-243E

PAYLOAD ACTIVE UNKNOWN

§ Identity

Operator
Country
US
Launch date
2025-10-26
Launch site
AFETR
Launch vehicle
Mass (kg)
RCS (m²)

Purposes: comms

External: N2YO · Heavens-Above · Gunter

§ Orbital elements

Epoch: 2026-09-20T20:47:35.676096Z

Period
93.85 min
Inclination
53.1582°
Eccentricity
0.0001368
Mean motion
15.34393233 rev/d
Perigee alt
461.8 km
Apogee alt
463.7 km
Semi-major
6,840.9 km
B*
4.0726e-4
RAAN
56.0200°
Arg perigee
95.7419°
Mean anomaly
264.3740°
Rev number
5,057

§ Raw data

STARLINK-353421 66181U 25243E   26263.86638514  .00013405  00000+0  40726-3 0  99922 66181  53.1582  56.0200 0001368  95.7419 264.3740 15.34393233 50573

JSON: /api/v1/satellites/66181 · /tle

For live sub-satellite position, see the globe view (requires WebGL).

§ Visibility from observer

Set your observer location to see the next 7 days of passes ≥ 10°. The values pass through the URL so the page stays shareable.

No JS? Fill the form by hand. The geolocation button needs JavaScript.